TKJ4PS LTCP-LTAC

Flight info

Callsign TKJ4PS
Flight time 0h 54m
Altitude 36000
Route ERH UW73 GEM UG8 MARTI UL614 GOBIT
Aircraft A320/M-SDE3FGHIRWY/LB1

Departure

Time 2026-04-29 12:46
Airport Adıyaman Airport (LTCP)

Arrival

Time 2026-04-29 13:41
Airport Esenboğa International Airport (LTAC)
Time Latitude Longitude Altitude Speed Heading
2026-04-29 12:30 37.73593 38.47075 2214 ft 0 kts 208°
2026-04-29 12:33 37.73592 38.47075 2214 ft 0 kts 208°
2026-04-29 12:34 37.73593 38.47075 2214 ft 0 kts 208°
2026-04-29 12:41 37.73586 38.47072 2214 ft 2 kts 197°
2026-04-29 12:41 37.73558 38.47089 2216 ft 7 kts 135°
2026-04-29 12:42 37.73541 38.47165 2215 ft 10 kts 126°
2026-04-29 12:42 37.73486 38.47230 2215 ft 12 kts 140°
2026-04-29 12:42 37.73411 38.47278 2214 ft 13 kts 193°
2026-04-29 12:42 37.73338 38.47192 2215 ft 17 kts 229°
2026-04-29 12:43 37.73256 38.47072 2216 ft 19 kts 229°
2026-04-29 12:43 37.73167 38.46942 2217 ft 20 kts 229°
2026-04-29 12:43 37.73105 38.46853 2214 ft 20 kts 229°
2026-04-29 12:43 37.73013 38.46717 2213 ft 21 kts 229°
2026-04-29 12:44 37.72916 38.46574 2214 ft 22 kts 229°
2026-04-29 12:44 37.72774 38.46368 2215 ft 24 kts 229°
2026-04-29 12:44 37.72700 38.46260 2213 ft 25 kts 229°
2026-04-29 12:44 37.72584 38.46091 2213 ft 26 kts 229°
2026-04-29 12:45 37.72484 38.45938 2213 ft 19 kts 243°
2026-04-29 12:45 37.72453 38.45815 2213 ft 10 kts 213°
2026-04-29 12:45 37.72430 38.45863 2214 ft 9 kts 59°
2026-04-29 12:45 37.72477 38.45934 2213 ft 14 kts 49°
2026-04-29 12:46 37.72711 38.46277 2213 ft 96 kts 49°
2026-04-29 12:46 37.73319 38.47166 2219 ft 167 kts 49°
2026-04-29 12:46 37.74145 38.48391 2691 ft 192 kts 48°
2026-04-29 12:46 37.75025 38.49716 3510 ft 202 kts 48°
2026-04-29 12:47 37.75984 38.51123 4191 ft 220 kts 48°
2026-04-29 12:47 37.77020 38.52631 4942 ft 229 kts 47°
2026-04-29 12:47 37.78022 38.54094 5670 ft 217 kts 47°
2026-04-29 12:47 37.78992 38.55514 6441 ft 209 kts 47°
2026-04-29 12:48 37.79926 38.56883 7187 ft 201 kts 47°
2026-04-29 12:48 37.80861 38.58252 7567 ft 215 kts 45°
2026-04-29 12:48 37.82106 38.59401 7799 ft 230 kts 17°
2026-04-29 12:48 37.83693 38.59588 8283 ft 232 kts 347°
2026-04-29 12:49 37.85155 38.58769 8950 ft 232 kts 328°
2026-04-29 12:49 37.86562 38.57681 9497 ft 247 kts 328°
2026-04-29 12:49 37.88095 38.56492 9820 ft 270 kts 328°
2026-04-29 12:49 37.89758 38.55205 10133 ft 291 kts 328°
2026-04-29 12:50 37.91553 38.53817 10369 ft 314 kts 328°
2026-04-29 12:50 37.93482 38.52329 10580 ft 334 kts 328°
2026-04-29 12:50 37.95496 38.50778 11136 ft 342 kts 328°
2026-04-29 12:50 37.97538 38.49204 11795 ft 346 kts 328°
2026-04-29 12:51 37.99601 38.47610 12501 ft 348 kts 328°
2026-04-29 12:51 38.01677 38.46002 13206 ft 351 kts 327°
2026-04-29 12:51 38.03768 38.44381 13857 ft 354 kts 327°
2026-04-29 12:51 38.05882 38.42739 14454 ft 358 kts 328°
2026-04-29 12:52 38.08020 38.41074 15023 ft 362 kts 327°
2026-04-29 12:52 38.10178 38.39396 15628 ft 363 kts 327°
2026-04-29 12:52 38.12342 38.37716 16217 ft 366 kts 327°
2026-04-29 12:52 38.14525 38.36022 16789 ft 370 kts 328°
2026-04-29 12:53 38.16734 38.34311 17344 ft 373 kts 328°
2026-04-29 12:53 38.18950 38.32592 17967 ft 374 kts 327°
2026-04-29 12:53 38.21151 38.30877 18499 ft 377 kts 328°
2026-04-29 12:53 38.23431 38.29101 18997 ft 381 kts 327°
2026-04-29 12:54 38.25691 38.27340 19549 ft 384 kts 328°
2026-04-29 12:54 38.27948 38.25576 20018 ft 387 kts 327°
2026-04-29 12:54 38.30249 38.23772 20606 ft 388 kts 327°
2026-04-29 12:54 38.32559 38.21961 21062 ft 392 kts 327°
2026-04-29 12:55 38.34891 38.20134 21537 ft 395 kts 327°
2026-04-29 12:55 38.37242 38.18291 21982 ft 398 kts 327°
2026-04-29 12:55 38.39610 38.16431 22432 ft 401 kts 327°
2026-04-29 12:55 38.41997 38.14553 22885 ft 404 kts 327°
2026-04-29 12:56 38.44258 38.12416 23331 ft 405 kts 317°
2026-04-29 12:56 38.46190 38.09793 23736 ft 407 kts 307°
2026-04-29 12:56 38.47736 38.06762 24114 ft 409 kts 297°
2026-04-29 12:56 38.48924 38.03453 24497 ft 410 kts 294°
2026-04-29 12:57 38.50066 38.00112 24876 ft 412 kts 294°
2026-04-29 12:57 38.51198 37.96790 25248 ft 414 kts 294°
2026-04-29 12:57 38.52359 37.93380 25653 ft 415 kts 294°
2026-04-29 12:57 38.53512 37.89995 26018 ft 416 kts 294°
2026-04-29 12:58 38.54653 37.86648 26398 ft 418 kts 294°
2026-04-29 12:58 38.55817 37.83232 26804 ft 419 kts 294°
2026-04-29 12:58 38.56983 37.79810 27162 ft 421 kts 294°
2026-04-29 12:58 38.58155 37.76364 27544 ft 423 kts 294°
2026-04-29 12:59 38.59330 37.72904 27920 ft 425 kts 294°
2026-04-29 12:59 38.60506 37.69435 28297 ft 426 kts 294°
2026-04-29 12:59 38.61687 37.65944 28715 ft 426 kts 294°
2026-04-29 12:59 38.62862 37.62466 29282 ft 424 kts 294°
2026-04-29 13:00 38.64027 37.59015 29823 ft 423 kts 294°
2026-04-29 13:00 38.65189 37.55567 30324 ft 421 kts 294°
2026-04-29 13:00 38.66340 37.52140 30785 ft 418 kts 294°
2026-04-29 13:00 38.67487 37.48723 31263 ft 417 kts 294°
2026-04-29 13:01 38.68628 37.45324 31753 ft 414 kts 294°
2026-04-29 13:01 38.69762 37.41943 32266 ft 412 kts 294°
2026-04-29 13:01 38.70889 37.38583 32748 ft 410 kts 294°
2026-04-29 13:01 38.72010 37.35237 33213 ft 408 kts 294°
2026-04-29 13:02 38.73127 37.31891 33653 ft 407 kts 294°
2026-04-29 13:02 38.74240 37.28561 34081 ft 406 kts 293°
2026-04-29 13:02 38.75351 37.25237 34430 ft 406 kts 293°
2026-04-29 13:02 38.76460 37.21912 34752 ft 406 kts 293°
2026-04-29 13:03 38.77567 37.18583 35091 ft 405 kts 293°
2026-04-29 13:03 38.78657 37.15301 35410 ft 405 kts 292°
2026-04-29 13:03 38.79762 37.11979 35697 ft 405 kts 292°
2026-04-29 13:03 38.80873 37.08643 35917 ft 407 kts 292°
2026-04-29 13:04 38.81990 37.05294 35977 ft 411 kts 292°
2026-04-29 13:04 38.84271 36.98418 35981 ft 426 kts 292°
2026-04-29 13:05 38.86598 36.91372 35985 ft 430 kts 292°
2026-04-29 13:05 38.88928 36.84310 35993 ft 430 kts 292°
2026-04-29 13:06 38.91254 36.77235 35987 ft 430 kts 292°
2026-04-29 13:06 38.93578 36.70156 35999 ft 430 kts 292°
2026-04-29 13:07 38.95899 36.63077 35998 ft 430 kts 292°
2026-04-29 13:07 38.98214 36.55986 36001 ft 429 kts 292°
2026-04-29 13:08 39.00527 36.48901 36007 ft 429 kts 292°
2026-04-29 13:08 39.02818 36.41865 36006 ft 429 kts 292°
2026-04-29 13:09 39.05112 36.34783 36002 ft 429 kts 292°
2026-04-29 13:09 39.07397 36.27708 36002 ft 428 kts 292°
2026-04-29 13:10 39.09682 36.20618 36004 ft 428 kts 292°
2026-04-29 13:10 39.11962 36.13541 36003 ft 428 kts 292°
2026-04-29 13:11 39.14235 36.06457 35996 ft 428 kts 292°
2026-04-29 13:11 39.16482 35.99346 35994 ft 428 kts 291°
2026-04-29 13:12 39.18607 35.92173 35995 ft 428 kts 290°
2026-04-29 13:12 39.20619 35.84965 36000 ft 427 kts 289°
2026-04-29 13:13 39.22487 35.77687 35989 ft 423 kts 288°
2026-04-29 13:13 39.23376 35.74154 35611 ft 417 kts 288°
2026-04-29 13:13 39.24282 35.70570 35250 ft 413 kts 288°
2026-04-29 13:13 39.25167 35.67108 34909 ft 411 kts 289°
2026-04-29 13:14 39.26065 35.63610 34583 ft 410 kts 289°
2026-04-29 13:14 39.26964 35.60116 34238 ft 410 kts 289°
2026-04-29 13:14 39.27864 35.56634 33895 ft 409 kts 289°
2026-04-29 13:14 39.28766 35.53143 33510 ft 410 kts 289°
2026-04-29 13:15 39.29666 35.49651 33124 ft 410 kts 289°
2026-04-29 13:15 39.30564 35.46149 32742 ft 411 kts 289°
2026-04-29 13:15 39.31460 35.42644 32385 ft 412 kts 289°
2026-04-29 13:15 39.32359 35.39121 32009 ft 413 kts 289°
2026-04-29 13:16 39.33255 35.35594 31655 ft 413 kts 289°
2026-04-29 13:16 39.34152 35.32067 31304 ft 414 kts 289°
2026-04-29 13:16 39.35051 35.28528 30948 ft 414 kts 289°
2026-04-29 13:16 39.35954 35.24976 30596 ft 415 kts 289°
2026-04-29 13:17 39.36855 35.21425 30271 ft 416 kts 289°
2026-04-29 13:17 39.37758 35.17870 29892 ft 417 kts 289°
2026-04-29 13:17 39.38659 35.14310 29486 ft 418 kts 289°
2026-04-29 13:17 39.39563 35.10725 29108 ft 419 kts 289°
2026-04-29 13:18 39.40466 35.07139 28707 ft 420 kts 289°
2026-04-29 13:18 39.41373 35.03547 28321 ft 419 kts 289°
2026-04-29 13:18 39.42273 34.99978 27960 ft 417 kts 289°
2026-04-29 13:18 39.43168 34.96414 27571 ft 415 kts 288°
2026-04-29 13:19 39.44055 34.92868 27200 ft 414 kts 288°
2026-04-29 13:19 39.44925 34.89377 26846 ft 412 kts 288°
2026-04-29 13:19 39.45803 34.85852 26483 ft 410 kts 288°
2026-04-29 13:19 39.46678 34.82348 26129 ft 409 kts 288°
2026-04-29 13:20 39.47550 34.78856 25782 ft 407 kts 288°
2026-04-29 13:20 39.48419 34.75375 25438 ft 406 kts 288°
2026-04-29 13:20 39.49287 34.71892 25096 ft 405 kts 288°
2026-04-29 13:20 39.50145 34.68436 24762 ft 403 kts 288°
2026-04-29 13:21 39.51000 34.64987 24431 ft 402 kts 288°
2026-04-29 13:21 39.51848 34.61553 24130 ft 401 kts 288°
2026-04-29 13:21 39.52696 34.58109 23825 ft 399 kts 288°
2026-04-29 13:21 39.53536 34.54691 23514 ft 398 kts 288°
2026-04-29 13:22 39.54376 34.51271 23158 ft 396 kts 288°
2026-04-29 13:22 39.55210 34.47884 22804 ft 394 kts 288°
2026-04-29 13:22 39.56043 34.44501 22452 ft 392 kts 288°
2026-04-29 13:22 39.56867 34.41143 22106 ft 391 kts 288°
2026-04-29 13:23 39.57690 34.37795 21773 ft 389 kts 288°
2026-04-29 13:23 39.58509 34.34452 21434 ft 388 kts 288°
2026-04-29 13:23 39.59317 34.31134 21096 ft 386 kts 288°
2026-04-29 13:23 39.60121 34.27817 20771 ft 385 kts 287°
2026-04-29 13:24 39.60923 34.24512 20439 ft 383 kts 287°
2026-04-29 13:24 39.61721 34.21233 20119 ft 381 kts 288°
2026-04-29 13:24 39.62518 34.17960 19798 ft 380 kts 288°
2026-04-29 13:24 39.63310 34.14700 19481 ft 379 kts 288°
2026-04-29 13:25 39.64098 34.11444 19169 ft 377 kts 287°
2026-04-29 13:25 39.65658 34.04973 18548 ft 374 kts 287°
2026-04-29 13:25 39.66434 34.01755 18243 ft 373 kts 287°
2026-04-29 13:26 39.66947 33.99632 18004 ft 372 kts 287°
2026-04-29 13:26 39.67718 33.96428 17679 ft 371 kts 287°
2026-04-29 13:26 39.68485 33.93238 17363 ft 369 kts 287°
2026-04-29 13:26 39.69247 33.90063 17054 ft 367 kts 287°
2026-04-29 13:27 39.70003 33.86910 16738 ft 366 kts 287°
2026-04-29 13:27 39.70757 33.83757 16424 ft 365 kts 287°
2026-04-29 13:27 39.71510 33.80608 16104 ft 364 kts 287°
2026-04-29 13:27 39.72260 33.77471 15810 ft 363 kts 287°
2026-04-29 13:28 39.73006 33.74338 15514 ft 362 kts 287°
2026-04-29 13:28 39.73747 33.71225 15218 ft 361 kts 287°
2026-04-29 13:28 39.74490 33.68111 14930 ft 360 kts 287°
2026-04-29 13:28 39.75230 33.65004 14635 ft 359 kts 287°
2026-04-29 13:29 39.75967 33.61903 14345 ft 358 kts 287°
2026-04-29 13:29 39.76699 33.58820 14053 ft 357 kts 287°
2026-04-29 13:29 39.77427 33.55737 13769 ft 356 kts 287°
2026-04-29 13:29 39.78150 33.52665 13442 ft 355 kts 286°
2026-04-29 13:30 39.78868 33.49606 13139 ft 353 kts 286°
2026-04-29 13:30 39.79582 33.46560 12824 ft 351 kts 286°
2026-04-29 13:30 39.80293 33.43529 12511 ft 350 kts 286°
2026-04-29 13:30 39.81001 33.40508 12209 ft 349 kts 286°
2026-04-29 13:31 39.81707 33.37498 11897 ft 347 kts 286°
2026-04-29 13:31 39.82406 33.34521 11607 ft 348 kts 286°
2026-04-29 13:31 39.83110 33.31522 11304 ft 344 kts 286°
2026-04-29 13:31 39.83804 33.28550 11014 ft 344 kts 286°
2026-04-29 13:32 39.84489 33.25614 10711 ft 329 kts 285°
2026-04-29 13:32 39.85132 33.22866 10426 ft 307 kts 285°
2026-04-29 13:32 39.85736 33.20283 10124 ft 289 kts 286°
2026-04-29 13:32 39.86306 33.17836 9851 ft 275 kts 285°
2026-04-29 13:33 39.86845 33.15520 9647 ft 260 kts 286°
2026-04-29 13:33 39.87357 33.13311 9452 ft 251 kts 286°
2026-04-29 13:33 39.87854 33.11166 9234 ft 245 kts 286°
2026-04-29 13:33 39.88340 33.09056 9035 ft 241 kts 286°
2026-04-29 13:34 39.88816 33.06992 8824 ft 236 kts 286°
2026-04-29 13:34 39.89284 33.04964 8627 ft 232 kts 286°
2026-04-29 13:34 39.89746 33.02966 8421 ft 228 kts 287°
2026-04-29 13:34 39.90198 33.01010 8229 ft 223 kts 286°
2026-04-29 13:35 39.90713 32.99116 7993 ft 221 kts 295°
2026-04-29 13:35 39.91505 32.97418 7767 ft 218 kts 306°
2026-04-29 13:35 39.92405 32.95836 7550 ft 216 kts 304°
2026-04-29 13:35 39.93285 32.94271 7366 ft 212 kts 304°
2026-04-29 13:36 39.94151 32.92725 7137 ft 210 kts 305°
2026-04-29 13:36 39.95003 32.91206 6926 ft 206 kts 305°
2026-04-29 13:36 39.95829 32.89733 6723 ft 196 kts 305°
2026-04-29 13:36 39.96622 32.88318 6471 ft 191 kts 305°
2026-04-29 13:37 39.97585 32.87149 6205 ft 192 kts 332°
2026-04-29 13:37 39.98895 32.86863 6024 ft 196 kts
2026-04-29 13:37 40.00148 32.87600 5820 ft 203 kts 31°
2026-04-29 13:37 40.01269 32.88674 5557 ft 194 kts 31°
2026-04-29 13:38 40.02292 32.89656 5310 ft 171 kts 35°
2026-04-29 13:38 40.03213 32.90533 5096 ft 159 kts 33°
2026-04-29 13:38 40.04100 32.91374 4891 ft 156 kts 31°
2026-04-29 13:38 40.04978 32.92207 4691 ft 155 kts 34°
2026-04-29 13:39 40.05841 32.93026 4485 ft 153 kts 33°
2026-04-29 13:39 40.06716 32.93857 4302 ft 155 kts 36°
2026-04-29 13:39 40.07576 32.94684 4089 ft 153 kts 30°
2026-04-29 13:39 40.08445 32.95506 3853 ft 152 kts 32°
2026-04-29 13:40 40.09312 32.96322 3658 ft 154 kts 32°
2026-04-29 13:40 40.10153 32.97115 3471 ft 148 kts 33°
2026-04-29 13:40 40.10977 32.97910 3274 ft 146 kts 32°
2026-04-29 13:40 40.11797 32.98692 3127 ft 139 kts 33°
2026-04-29 13:41 40.12469 32.99330 3120 ft 96 kts 37°
2026-04-29 13:41 40.12868 32.99712 3122 ft 46 kts 36°
2026-04-29 13:41 40.13027 32.99933 3125 ft 28 kts 60°
2026-04-29 13:41 40.13075 33.00062 3126 ft 7 kts 66°
2026-04-29 13:42 40.13083 33.00155 3124 ft 17 kts 122°
2026-04-29 13:42 40.12994 33.00139 3124 ft 15 kts 217°
2026-04-29 13:42 40.12902 33.00051 3123 ft 18 kts 216°
2026-04-29 13:42 40.12795 32.99949 3122 ft 20 kts 216°
2026-04-29 13:43 40.12676 32.99835 3123 ft 21 kts 216°
2026-04-29 13:43 40.12550 32.99716 3122 ft 23 kts 216°
2026-04-29 13:43 40.12424 32.99595 3120 ft 23 kts 216°
2026-04-29 13:43 40.12290 32.99465 3119 ft 25 kts 216°
2026-04-29 13:44 40.12143 32.99324 3117 ft 27 kts 216°
2026-04-29 13:44 40.11987 32.99174 3115 ft 29 kts 217°
2026-04-29 13:44 40.11855 32.99051 3114 ft 15 kts 215°
2026-04-29 13:44 40.11774 32.99091 3113 ft 12 kts 133°
2026-04-29 13:45 40.11710 32.99160 3113 ft 13 kts 104°
2026-04-29 13:45 40.11739 32.99274 3113 ft 14 kts 70°
2026-04-29 13:45 40.11765 32.99381 3113 ft 10 kts 75°
2026-04-29 13:45 40.11733 32.99418 3113 ft 6 kts 169°
2026-04-29 13:46 40.11710 32.99424 3113 ft 2 kts 167°
2026-04-29 13:46 40.11701 32.99427 3113 ft 0 kts 167°